Location: Helsinki
(60.1699°N, 24.9384°E)
Time: 22:55:29
(UTC+02:00)

Altair - Pass Details

Date: 05 November 2020
Orbit: 1502 x 1682 km, 47.2° (Epoch: 25 November)

Event Time Altitude Azimuth Distance (km) Brightness Sun altitude
Rises 06:40:57 0° 256° (WSW) 4,661 - -9.2°
Exits shadow 06:42:02 - 254° (WSW) 4,332 9.3 -9.0°
Reaches altitude 10° 06:44:13 10° 249° (WSW) 3,695 9.0 -8.8°
Maximum altitude 06:52:27 37° 186° (S) 2,249 8.5 -7.8°
Drops below altitude 10° 07:00:58 10° 124° (SE) 3,812 11.1 -6.8°
Sets 07:04:23 0° 117° (ESE) 4,823 12.7 -6.4°
